Time,TemperatureF,DewpointF,PressureIn,WindDirection,WindDirectionDegrees,WindSpeedMPH,WindSpeedGustMPH,Humidity,HourlyPrecipIn,Conditions,Clouds,dailyrainin,SoftwareType,DateUTC
2013-09-01 00:12:00,59.0,55.0,30.04,SW,218,0.0,0.0,88,0.00,,,0.00,,2013-09-01 07:12:00,
2013-09-01 00:22:00,59.0,55.0,30.04,SW,218,0.0,0.0,88,0.00,,,0.00,,2013-09-01 07:22:00,
2013-09-01 00:52:00,58.0,55.0,30.04,SW,218,0.0,0.0,89,0.00,,,0.00,,2013-09-01 07:52:00,
2013-09-01 01:11:00,58.0,55.0,30.04,SW,218,0.0,0.0,90,0.00,,,0.00,,2013-09-01 08:11:00,
2013-09-01 01:22:00,58.0,55.0,30.04,SW,218,0.0,0.0,90,0.00,,,0.00,,2013-09-01 08:22:00,
2013-09-01 01:43:00,58.0,55.0,30.03,SW,219,0.0,0.0,89,0.00,,,0.00,,2013-09-01 08:43:00,
2013-09-01 01:52:00,58.0,55.0,30.03,SW,219,0.0,0.0,89,0.00,,,0.00,,2013-09-01 08:52:00,
2013-09-01 02:11:00,58.0,55.0,30.03,SW,218,0.0,1.0,90,0.00,,,0.00,,2013-09-01 09:11:00,
2013-09-01 02:21:00,58.0,55.0,30.03,SW,218,0.0,1.0,90,0.00,,,0.00,,2013-09-01 09:21:00,
2013-09-01 02:53:00,57.0,54.0,30.03,SW,218,0.0,2.0,90,0.00,,,0.00,,2013-09-01 09:53:00,
2013-09-01 03:03:00,57.0,54.0,30.03,SW,218,0.0,2.0,90,0.00,,,0.00,,2013-09-01 10:03:00,
2013-09-01 03:12:00,57.0,54.0,30.03,SW,218,0.0,2.0,90,0.00,,,0.00,,2013-09-01 10:12:00,
2013-09-01 03:23:00,57.0,54.0,30.03,SW,218,0.0,2.0,90,0.00,,,0.00,,2013-09-01 10:23:00,
2013-09-01 03:53:00,57.0,54.0,30.01,SW,218,1.0,3.0,91,0.00,,,0.00,,2013-09-01 10:53:00,
2013-09-01 04:12:00,57.0,54.0,30.01,SSW,210,0.0,5.0,91,0.00,,,0.00,,2013-09-01 11:12:00,
2013-09-01 04:22:00,56.0,53.0,30.01,SSW,210,0.0,3.0,91,0.00,,,0.00,,2013-09-01 11:22:00,
2013-09-01 04:32:00,56.0,53.0,30.01,SSW,210,0.0,3.0,91,0.00,,,0.00,,2013-09-01 11:32:00,
2013-09-01 04:52:00,56.0,53.0,30.01,SSW,210,0.0,3.0,91,0.00,,,0.00,,2013-09-01 11:52:00,
2013-09-01 05:12:00,56.0,54.0,30.01,SSW,210,1.0,2.0,92,0.00,,,0.00,,2013-09-01 12:12:00,
2013-09-01 05:22:00,56.0,54.0,30.00,SSW,210,0.0,1.0,92,0.00,,,0.00,,2013-09-01 12:22:00,
2013-09-01 05:32:00,56.0,54.0,30.00,SSW,210,0.0,1.0,92,0.00,,,0.00,,2013-09-01 12:32:00,
2013-09-01 05:52:00,56.0,54.0,30.00,SSW,210,0.0,1.0,92,0.00,,,0.00,,2013-09-01 12:52:00,
2013-09-01 06:11:00,56.0,54.0,30.01,SSW,210,0.0,0.0,93,0.00,,,0.00,,2013-09-01 13:11:00,
2013-09-01 06:21:00,56.0,54.0,30.00,SSW,210,0.0,2.0,93,0.00,,,0.00,,2013-09-01 13:21:00,
2013-09-01 06:42:00,56.0,54.0,30.00,SSW,210,0.0,2.0,93,0.00,,,0.00,,2013-09-01 13:42:00,
2013-09-01 06:52:00,56.0,54.0,30.00,SSW,210,0.0,2.0,93,0.00,,,0.00,,2013-09-01 13:52:00,
2013-09-01 07:11:00,56.0,54.0,30.00,SSW,211,0.0,2.0,93,0.00,,,0.00,,2013-09-01 14:11:00,
2013-09-01 07:21:00,56.0,54.0,30.00,SSW,211,0.0,2.0,93,0.00,,,0.00,,2013-09-01 14:21:00,
2013-09-01 07:42:00,56.0,54.0,30.00,SSW,210,0.0,1.0,93,0.00,,,0.00,,2013-09-01 14:42:00,
2013-09-01 07:52:00,56.0,54.0,30.00,SSW,210,0.0,1.0,93,0.00,,,0.00,,2013-09-01 14:52:00,
2013-09-01 08:11:00,55.0,53.0,30.00,SSW,210,0.0,1.0,92,0.00,,,0.00,,2013-09-01 15:11:00,
2013-09-01 08:23:00,55.0,53.0,30.00,SSW,210,0.0,1.0,92,0.00,,,0.00,,2013-09-01 15:23:00,
2013-09-01 08:45:00,56.0,54.0,29.98,SSW,210,0.0,1.0,92,0.00,,,0.00,,2013-09-01 15:45:00,
2013-09-01 08:55:00,56.0,54.0,29.98,SSW,210,0.0,1.0,92,0.00,,,0.00,,2013-09-01 15:55:00,
2013-09-01 09:14:00,58.0,55.0,29.98,SSW,210,0.0,2.0,91,0.00,,,0.00,,2013-09-01 16:14:00,
2013-09-01 09:24:00,58.0,55.0,29.98,SSW,210,0.0,2.0,91,0.00,,,0.00,,2013-09-01 16:24:00,
2013-09-01 09:53:00,59.0,56.0,29.97,SSW,210,2.0,3.0,89,0.00,,,0.00,,2013-09-01 16:53:00,
2013-09-01 10:12:00,62.0,58.0,29.97,SSW,210,0.0,1.0,87,0.00,,,0.00,,2013-09-01 17:12:00,
2013-09-01 10:23:00,62.0,58.0,29.97,SSW,210,0.0,1.0,87,0.00,,,0.00,,2013-09-01 17:23:00,
2013-09-01 10:52:00,66.0,60.0,29.97,SSW,210,0.0,3.0,80,0.00,,,0.00,,2013-09-01 17:52:00,
2013-09-01 11:12:00,69.0,59.0,29.97,South,188,2.0,4.0,71,0.00,,,0.00,,2013-09-01 18:12:00,
2013-09-01 11:22:00,73.0,61.0,29.97,South,170,1.0,4.0,65,0.00,,,0.00,,2013-09-01 18:22:00,
2013-09-01 11:32:00,73.0,61.0,29.97,South,170,1.0,4.0,65,0.00,,,0.00,,2013-09-01 18:32:00,
2013-09-01 11:42:00,73.0,61.0,29.97,South,170,1.0,4.0,65,0.00,,,0.00,,2013-09-01 18:42:00,
2013-09-01 11:52:00,73.0,61.0,29.97,South,170,1.0,4.0,65,0.00,,,0.00,,2013-09-01 18:52:00,
2013-09-01 12:12:00,77.0,60.0,29.96,SE,141,1.0,6.0,56,0.00,,,0.00,,2013-09-01 19:12:00,
2013-09-01 12:22:00,77.0,60.0,29.96,SE,141,1.0,6.0,56,0.00,,,0.00,,2013-09-01 19:22:00,
2013-09-01 12:52:00,81.0,61.0,29.95,South,178,4.0,6.0,50,0.00,,,0.00,,2013-09-01 19:52:00,
2013-09-01 13:12:00,85.0,60.0,29.95,ESE,123,3.0,5.0,43,0.00,,,0.00,,2013-09-01 20:12:00,
2013-09-01 13:21:00,85.0,60.0,29.95,ESE,123,3.0,5.0,43,0.00,,,0.00,,2013-09-01 20:21:00,
2013-09-01 14:11:00,83.0,62.0,29.94,ENE,71,1.0,4.0,49,0.00,,,0.00,,2013-09-01 21:11:00,
2013-09-01 14:21:00,83.0,62.0,29.94,ENE,71,1.0,4.0,49,0.00,,,0.00,,2013-09-01 21:21:00,
2013-09-01 16:42:00,85.0,59.0,29.91,SW,214,1.0,10.0,41,0.00,,,0.00,,2013-09-01 23:42:00,
2013-09-01 16:53:00,85.0,59.0,29.91,SW,214,1.0,10.0,41,0.00,,,0.00,,2013-09-01 23:53:00,
2013-09-01 17:22:00,83.0,59.0,29.91,SE,125,2.0,5.0,44,0.00,,,0.00,,2013-09-02 00:22:00,
2013-09-01 17:42:00,81.0,58.0,29.91,SSW,207,2.0,10.0,46,0.00,,,0.00,,2013-09-02 00:42:00,
2013-09-01 17:52:00,81.0,58.0,29.91,SSW,207,2.0,10.0,46,0.00,,,0.00,,2013-09-02 00:52:00,
2013-09-01 18:12:00,79.0,60.0,29.91,SSW,207,2.0,5.0,52,0.00,,,0.00,,2013-09-02 01:12:00,
2013-09-01 18:21:00,79.0,60.0,29.91,SSW,207,2.0,5.0,52,0.00,,,0.00,,2013-09-02 01:21:00,
2013-09-01 18:42:00,76.0,61.0,29.92,SSW,199,2.0,5.0,60,0.00,,,0.00,,2013-09-02 01:42:00,
2013-09-01 18:52:00,76.0,61.0,29.92,SSW,199,2.0,5.0,60,0.00,,,0.00,,2013-09-02 01:52:00,
2013-09-01 19:12:00,75.0,62.0,29.92,SSW,195,3.0,6.0,63,0.00,,,0.00,,2013-09-02 02:12:00,
2013-09-01 19:22:00,75.0,62.0,29.92,SSW,195,3.0,6.0,63,0.00,,,0.00,,2013-09-02 02:22:00,
2013-09-01 19:42:00,73.0,61.0,29.92,SSW,200,1.0,4.0,66,0.00,,,0.00,,2013-09-02 02:42:00,
2013-09-01 19:52:00,73.0,61.0,29.92,SSW,200,1.0,4.0,66,0.00,,,0.00,,2013-09-02 02:52:00,
2013-09-01 20:11:00,72.0,62.0,29.93,SW,225,0.0,8.0,70,0.00,,,0.00,,2013-09-02 03:11:00,
2013-09-01 20:22:00,72.0,62.0,29.93,SW,225,0.0,8.0,70,0.00,,,0.00,,2013-09-02 03:22:00,
2013-09-01 20:56:00,71.0,62.0,29.93,SSW,207,0.0,3.0,72,0.00,,,0.00,,2013-09-02 03:56:00,
2013-09-01 21:14:00,71.0,63.0,29.94,SSW,207,0.0,2.0,75,0.00,,,0.00,,2013-09-02 04:14:00,
2013-09-01 21:24:00,71.0,63.0,29.94,SSW,207,0.0,2.0,75,0.00,,,0.00,,2013-09-02 04:24:00,
2013-09-01 21:54:00,70.0,62.0,29.95,SSW,207,0.0,4.0,77,0.00,,,0.00,,2013-09-02 04:54:00,
2013-09-01 22:12:00,69.0,63.0,29.96,SSE,152,1.0,3.0,80,0.00,,,0.00,,2013-09-02 05:12:00,
2013-09-01 22:23:00,69.0,63.0,29.96,SSE,152,1.0,3.0,80,0.00,,,0.00,,2013-09-02 05:23:00,
2013-09-01 22:52:00,69.0,63.0,29.96,SSE,152,0.0,1.0,81,0.00,,,0.00,,2013-09-02 05:52:00,
2013-09-01 23:12:00,68.0,63.0,29.96,SSE,152,0.0,0.0,83,0.00,,,0.00,,2013-09-02 06:12:00,
2013-09-01 23:22:00,68.0,63.0,29.96,SSE,152,0.0,0.0,83,0.00,,,0.00,,2013-09-02 06:22:00,
2013-09-01 23:43:00,68.0,63.0,29.96,SSE,152,0.0,0.0,83,0.00,,,0.00,,2013-09-02 06:43:00,
2013-09-01 23:52:00,68.0,63.0,29.96,SSE,152,0.0,0.0,83,0.00,,,0.00,,2013-09-02 06:52:00,